#timestamp,LO_Frequency,Hit 
1500573615.8,286046903.4,N
1500573635.6,286046902.8,N
1500573655.5,286046904.9,N
1500573675.3,286046905.2,N
1500573695.1,286046906.3,N
1500573715.9,286046904.2,N
1500573735.7,286046902.3,N
1500573755.5,286046904.3,N
1500573775.4,286046906.8,N
1500573795.2,286046903.9,N
1500573815.0,286046906.7,N
1500573815.9,286046906.7,N
1500573835.8,286046903.9,N
1500573855.6,286046906.8,N
1500573875.4,286046904.2,N
1500573895.3,286046905.9,N
1500573915.1,286046907.5,N
1500573935.8,286046907.9,N
1500573955.7,286046907.1,N
1500573975.5,286046908.1,N
1500573995.3,286046908.0,N
1500574015.2,286046905.8,N
1500574035.9,286046906.3,N
1500574055.7,286046906.3,N
1500574075.6,286046905.9,N
1500574095.4,286046905.8,N
1500574115.2,286046906.7,N
1500574135.1,286046905.8,N
1500574136.0,286046905.8,N
1500574155.8,286046905.7,N
1500574175.6,286046908.3,N
1500574195.5,286046905.9,N
1500574215.3,286046907.5,N
1500574235.1,286046909.9,N
1500574255.8,286046907.5,N
1500574275.7,286046907.2,N
1500574295.5,286046908.2,N
1500574315.3,286046907.7,N
1500574335.2,286046909.5,N
1500574355.0,286046909.2,N
1500574355.9,286046909.2,N
1500574375.7,286046906.9,N
1500574395.6,286046910.0,N
1500574415.4,286046910.9,N
1500574435.2,286046910.4,N
1500574455.1,286046910.8,N
1500574456.0,286046910.8,N
1500574475.8,286046910.7,N
1500574495.6,286046912.5,N
1500574515.5,286046911.4,N
1500574535.3,286046908.8,N
1500574555.1,286046908.6,N
1500574575.9,286046909.1,N
1500574595.7,286046911.0,N
1500574615.5,286046910.8,N
1500574635.4,286046910.4,N
1500574655.2,286046912.7,N
1500574675.0,286046911.0,N
1500574675.9,286046911.0,N
1500574695.8,286046911.0,N
1500574715.6,286046910.8,N
1500574735.4,286046911.0,N
1500574755.2,286046910.8,N
1500574775.1,286046910.8,N
1500574776.0,286046910.8,N
1500574795.8,286046911.1,N
1500574815.6,286046912.7,N
1500574835.5,286046914.8,N
1500574855.3,286046910.3,N
1500574875.1,286046910.2,N
1500574895.9,286046912.9,N
1500574915.7,286046912.2,N
1500574935.5,286046912.5,N
1500574955.4,286046914.3,N
1500574975.2,286046914.3,N
1500574995.0,286046913.5,N
1500574995.9,286046913.5,N
1500575015.8,286046911.8,N
1500575035.6,286046916.1,N
1500575055.4,286046914.9,N
1500575075.3,286046917.5,N
1500575095.1,286046915.4,N
1500575096.0,286046915.4,N
1500575115.8,286046915.8,N
1500575135.7,286046915.5,N
1500575155.5,286046916.1,N
1500575175.3,286046915.5,N
1500575195.2,286046917.4,N
1500575215.9,286046916.5,N
1500575235.7,286046916.9,N
1500575255.6,286046917.0,N
1500575275.4,286046917.7,N
1500575295.2,286046915.2,N
1500575315.1,286046915.6,N
1500575316.0,286046915.6,N
1500575335.8,286046916.5,N
1500575355.6,286046918.2,N
1500575375.5,286046922.8,N
1500575395.3,286046918.6,N
1500575415.1,286046920.7,N
1500575435.8,286046920.0,N
1500575455.7,286046921.0,N
1500575475.5,286046918.5,N
1500575495.3,286046918.6,N
1500575515.2,286046922.0,N
1500575535.0,286046920.2,N
1500575535.9,286046920.2,N
1500575555.7,286046919.9,N
1500575575.6,286046921.0,N
1500575595.4,286046920.6,N
1500575615.2,286046922.8,N
1500575635.1,286046919.7,N
1500575636.0,286046919.7,N
1500575655.8,286046921.3,N
1500575675.6,286046922.4,N
1500575695.5,286046920.6,N
1500575715.3,286046920.2,N
1500575735.1,286046920.3,N
1500575755.9,286046922.2,N
1500575775.7,286046920.4,N
1500575795.5,286046920.0,N
1500575815.4,286046920.3,N
1500575835.2,286046920.7,N
1500575855.0,286046919.7,N
1500575855.9,286046919.7,N
1500575875.8,286046922.4,N
1500575895.6,286046922.1,N
1500575915.4,286046922.0,N
1500575935.3,286046922.2,N
1500575955.1,286046921.5,N
1500575956.0,286046921.5,N
1500575975.8,286046923.5,N
1500575995.7,286046925.4,N
1500576015.5,286046924.6,N
1500576035.3,286046925.0,N
1500576055.2,286046926.9,N
1500576075.9,286046929.0,N
1500576095.7,286046928.9,N
1500576115.6,286046927.9,N
1500576135.4,286046930.8,N
1500576155.2,286046930.1,N
1500576175.0,286046930.4,N
1500576176.0,286046930.4,N
1500576195.8,286046930.1,N
1500576215.6,286046929.7,N
1500576235.4,286046929.7,N
1500576255.3,286046932.1,N
1500576275.1,286046932.2,N
1500576295.8,286046929.8,N
1500576315.7,286046932.4,N
1500576335.5,286046929.4,N
1500576355.3,286046933.1,N
1500576375.2,286046934.4,N
1500576395.9,286046934.6,N
1500576415.7,286046935.7,N
1500576435.6,286046939.4,N
1500576455.4,286046941.5,N
1500576475.2,286046941.9,N
1500576495.1,286046941.3,N
1500576496.0,286046941.3,N
1500576515.8,286046939.5,N
1500576535.6,286046941.1,N
1500576555.5,286046943.5,N
1500576575.3,286046941.1,N
1500576595.1,286046940.7,N
1500576615.9,286046943.4,N
1500576635.7,286046942.7,N
1500576655.5,286046943.4,N
1500576675.4,286046943.3,N
1500576695.2,286046942.8,N
1500576715.0,286046944.3,N
1500576715.9,286046944.3,N
1500576735.7,286046942.1,N
1500576755.6,286046945.9,N
1500576775.4,286046948.3,N
1500576795.2,286046949.6,N
1500576815.1,286046951.5,N
1500576816.0,286046951.5,N
1500576835.8,286046951.1,N
1500576855.6,286046951.3,N
1500576875.5,286046950.6,N
1500576895.3,286046951.5,N
1500576915.1,286046951.3,N
1500576935.9,286046951.6,N
1500576955.7,286046948.6,N
1500576975.5,286046950.7,N
1500576995.4,286046952.5,N
1500577015.2,286046954.3,N
1500577035.0,286046956.0,N
1500577035.9,286046956.0,N
1500577055.8,286046957.7,N
1500577075.6,286046959.2,N
1500577095.4,286046959.0,N
1500577115.3,286046956.9,N
1500577135.1,286046957.8,N
1500577136.0,286046957.8,N
1500577155.8,286046955.5,N
1500577175.7,286046957.8,N
1500577195.5,286046959.4,N
